Terug naar catalogus

STARLINK-37438

ActiefCommunicatieVLEO
NORAD 69526·PAYLOAD·🇺🇸 United States

Gelanceerd Jun 12, 2026 vanaf Cape Canaveral Space Force Station

Loading…

Volgende Passages (komende 24 uur)

TLE

VersSource: CelesTrak SupGP

Epoch: Sep 15, 2026, 04:27 UTC

1 69526C 26133U   26258.18590278 -.00043090  00000+0 -12731-2 0  2587
2 69526  53.1568 254.3609 0001270  88.2304 175.0121 15.34411881    16

Volg STARLINK-37438 in realtime met AllMySat

Download on the App Store